| time (UTC) | temp C | wind direction | speed KPH | gust KPH | rain 1hr cm | rain 24hr cm | rain mn cm | humidity % | barometer mb |
| 20260504214517 | 22 | 293 | 6.4 | 22.5 | 0.00 | 0.00 | 0.00 | 37 | 1010.6 |
| 20260504213517 | 22 | 248 | 4.8 | 14.5 | 0.00 | 0.00 | 0.00 | 36 | 1010.6 |
| 20260504212519 | 22 | 293 | 3.2 | 9.7 | 0.00 | 0.00 | 0.00 | 37 | 1010.6 |
| 20260504211517 | 22 | 270 | 4.8 | 11.3 | 0.00 | 0.00 | 0.00 | 38 | 1010.6 |
| 20260504210517 | 22 | 293 | 4.8 | 16.1 | 0.00 | 0.00 | 0.00 | 37 | 1010.7 |
| 20260504205517 | 22 | 270 | 3.2 | 6.4 | 0.00 | 0.00 | 0.00 | 39 | 1010.7 |
| 20260504204518 | 22 | 270 | 3.2 | 11.3 | 0.00 | 0.00 | 0.00 | 39 | 1010.7 |
| 20260504203517 | 22 | 248 | 6.4 | 19.3 | 0.00 | 0.00 | 0.00 | 37 | 1010.7 |
| 20260504202517 | 22 | 293 | 4.8 | 19.3 | 0.00 | 0.00 | 0.00 | 38 | 1010.8 |
| 20260504201517 | 22 | 293 | 3.2 | 9.7 | 0.00 | 0.00 | 0.00 | 41 | 1011.0 |
| 20260504200517 | 21 | 270 | 6.4 | 14.5 | 0.00 | 0.00 | 0.00 | 39 | 1011.1 |
| 20260504195517 | 21 | 270 | 4.8 | 14.5 | 0.00 | 0.00 | 0.00 | 39 | 1011.2 |
| 20260504194517 | 22 | 270 | 3.2 | 11.3 | 0.00 | 0.00 | 0.00 | 38 | 1011.2 |
| 20260504193517 | 21 | 315 | 4.8 | 16.1 | 0.00 | 0.00 | 0.00 | 39 | 1011.4 |
| 20260504192517 | 21 | 248 | 4.8 | 12.9 | 0.00 | 0.00 | 0.00 | 39 | 1011.5 |
| 20260504191516 | 21 | 248 | 6.4 | 22.5 | 0.00 | 0.00 | 0.00 | 40 | 1011.5 |
| 20260504190517 | 21 | 270 | 4.8 | 14.5 | 0.00 | 0.00 | 0.00 | 41 | 1011.7 |
| 20260504185517 | 21 | 203 | 4.8 | 9.7 | 0.00 | 0.00 | 0.00 | 38 | 1011.8 |
| 20260504184517 | 21 | 225 | 4.8 | 14.5 | 0.00 | 0.00 | 0.00 | 40 | 1011.8 |
| 20260504183516 | 21 | 248 | 4.8 | 14.5 | 0.00 | 0.00 | 0.00 | 38 | 1012.1 |
| 20260504182517 | 20 | 270 | 3.2 | 9.7 | 0.00 | 0.00 | 0.00 | 40 | 1012.1 |
| 20260504181516 | 20 | 293 | 4.8 | 24.1 | 0.00 | 0.00 | 0.00 | 39 | 1012.3 |
| 20260504180517 | 20 | 270 | 3.2 | 11.3 | 0.00 | 0.00 | 0.00 | 40 | 1012.4 |
| 20260504175517 | 20 | 270 | 3.2 | 14.5 | 0.00 | 0.00 | 0.00 | 39 | 1012.5 |
| 20260504174517 | 20 | 180 | 4.8 | 11.3 | 0.00 | 0.00 | 0.00 | 39 | 1012.8 |
| 20260504173518 | 20 | 248 | 4.8 | 16.1 | 0.00 | 0.00 | 0.00 | 38 | 1012.8 |
| 20260504172517 | 20 | 270 | 6.4 | 17.7 | 0.00 | 0.00 | 0.00 | 41 | 1013.1 |
| 20260504171517 | 20 | 203 | 4.8 | 12.9 | 0.00 | 0.00 | 0.00 | 38 | 1013.2 |
| 20260504170517 | 20 | 248 | 8.0 | 19.3 | 0.00 | 0.00 | 0.00 | 38 | 1013.3 |
| 20260504150517 | 17 | 248 | 4.8 | 14.5 | 0.00 | 0.00 | 0.00 | 48 | 1014.5 |
| 20260504140516 | 15 | 248 | 1.6 | 11.3 | 0.00 | 0.00 | 0.00 | 58 | 1014.7 |
| 20260504130516 | 12 | 293 | 3.2 | 8.0 | 0.00 | 0.00 | 0.00 | 72 | 1015.2 |
| 20260504110516 | 7 | 0.0 | 3.2 | 0.00 | 0.00 | 0.00 | 75 | 1015.5 | |
| 20260504100517 | 7 | 0.0 | 4.8 | 0.00 | 0.00 | 0.00 | 72 | 1015.7 | |
| 20260504081516 | 6 | 156 | 0.0 | 0.0 | 0.00 | 0.00 | 0.00 | 69 | 1015.6 |
| 20260504080516 | 6 | 156 | 0.0 | 0.0 | 0.00 | 0.00 | 0.00 | 69 | 1015.5 |
| 20260504050515 | 6 | 129 | 0.0 | 0.0 | 0.00 | 0.00 | 0.00 | 68 | 1015.5 |
| 20260504045515 | 6 | 129 | 0.0 | 0.0 | 0.00 | 0.00 | 0.00 | 67 | 1015.4 |
| 20260504044516 | 6 | 129 | 0.0 | 0.0 | 0.00 | 0.00 | 0.00 | 66 | 1015.5 |
| 20260504043516 | 6 | 129 | 0.0 | 0.0 | 0.00 | 0.00 | 0.00 | 67 | 1015.4 |
| 20260504042515 | 7 | 129 | 0.0 | 0.0 | 0.00 | 0.00 | 0.00 | 66 | 1015.2 |
| 20260504041516 | 7 | 129 | 0.0 | 0.0 | 0.00 | 0.00 | 0.00 | 64 | 1015.1 |
| 20260504040516 | 7 | 129 | 0.0 | 0.0 | 0.00 | 0.00 | 0.00 | 62 | 1015.1 |
| 20260504035516 | 8 | 129 | 0.0 | 0.0 | 0.00 | 0.00 | 0.00 | 59 | 1015.0 |
| 20260504034515 | 8 | 0.0 | 1.6 | 0.00 | 0.00 | 0.00 | 58 | 1015.0 | |
| 20260504033516 | 8 | 0.0 | 1.6 | 0.00 | 0.00 | 0.00 | 57 | 1015.0 | |
| 20260504032515 | 8 | 0.0 | 1.6 | 0.00 | 0.00 | 0.00 | 56 | 1014.9 | |
| 20260504031516 | 9 | 0.0 | 1.6 | 0.00 | 0.00 | 0.00 | 54 | 1014.8 | |
| 20260504030516 | 9 | 142 | 0.0 | 0.0 | 0.00 | 0.00 | 0.00 | 53 | 1014.8 |
| 20260504025515 | 9 | 0.0 | 1.6 | 0.00 | 0.00 | 0.00 | 54 | 1014.7 | |
| 20260504024516 | 10 | 0.0 | 1.6 | 0.00 | 0.00 | 0.00 | 52 | 1014.9 | |
| 20260504023516 | 10 | 0.0 | 1.6 | 0.00 | 0.00 | 0.00 | 52 | 1014.9 | |
| 20260504022516 | 10 | 0.0 | 1.6 | 0.00 | 0.00 | 0.00 | 51 | 1014.9 | |
| 20260504021516 | 10 | 0.0 | 1.6 | 0.00 | 0.00 | 0.00 | 51 | 1014.8 | |
| 20260504020515 | 10 | 138 | 0.0 | 0.0 | 0.00 | 0.00 | 0.00 | 51 | 1014.8 |
| 20260504015520 | 10 | 0.0 | 1.6 | 0.00 | 0.00 | 0.00 | 51 | 1014.8 | |
| 20260504014516 | 10 | 0.0 | 1.6 | 0.00 | 0.00 | 0.00 | 50 | 1014.7 | |
| 20260504013516 | 11 | 0.0 | 1.6 | 0.00 | 0.00 | 0.00 | 49 | 1014.5 | |
| 20260504012515 | 11 | 237 | 0.0 | 0.0 | 0.00 | 0.00 | 0.00 | 48 | 1014.5 |
| 20260504011515 | 11 | 0.0 | 1.6 | 0.00 | 0.00 | 0.00 | 48 | 1014.4 | |
| 20260504010515 | 11 | 0.0 | 3.2 | 0.00 | 0.00 | 0.00 | 48 | 1014.3 | |
| 20260504005515 | 11 | 238 | 0.0 | 0.0 | 0.00 | 0.00 | 0.00 | 48 | 1014.3 |
| 20260504004515 | 11 | 0.0 | 1.6 | 0.00 | 0.00 | 0.00 | 47 | 1014.2 | |
| 20260504003517 | 12 | 0.0 | 1.6 | 0.00 | 0.00 | 0.00 | 46 | 1014.0 | |
| 20260504002518 | 12 | 0.0 | 1.6 | 0.00 | 0.00 | 0.00 | 44 | 1013.8 | |
| 20260504001517 | 13 | 0.0 | 1.6 | 0.00 | 0.00 | 0.00 | 42 | 1013.8 | |
| 20260504000517 | 13 | 248 | 1.6 | 11.3 | 0.00 | 0.00 | 0.00 | 40 | 1013.7 |
| 20260503235518 | 13 | 0.0 | 4.8 | 0.00 | 0.00 | 0.00 | 39 | 1013.6 | |
| 20260503234515 | 14 | 270 | 1.6 | 6.4 | 0.00 | 0.00 | 0.00 | 38 | 1013.5 |
| 20260503233517 | 14 | 0.0 | 3.2 | 0.00 | 0.00 | 0.00 | 38 | 1013.4 | |
| 20260503232517 | 15 | 293 | 3.2 | 8.0 | 0.00 | 0.00 | 0.00 | 36 | 1013.4 |
| 20260503231517 | 15 | 270 | 1.6 | 6.4 | 0.00 | 0.00 | 0.00 | 36 | 1013.4 |
| 20260503230517 | 15 | 248 | 3.2 | 19.3 | 0.00 | 0.00 | 0.00 | 35 | 1013.4 |
| 20260503225517 | 15 | 270 | 3.2 | 11.3 | 0.00 | 0.00 | 0.00 | 35 | 1013.3 |
| 20260503224518 | 15 | 248 | 1.6 | 11.3 | 0.00 | 0.00 | 0.00 | 34 | 1013.2 |
| 20260503223517 | 16 | 270 | 1.6 | 6.4 | 0.00 | 0.00 | 0.00 | 34 | 1013.2 |
| 20260503222517 | 16 | 270 | 3.2 | 11.3 | 0.00 | 0.00 | 0.00 | 34 | 1013.2 |
| 20260503221518 | 15 | 270 | 6.4 | 14.5 | 0.00 | 0.00 | 0.00 | 34 | 1013.3 |
| 20260503220517 | 16 | 293 | 4.8 | 14.5 | 0.00 | 0.00 | 0.00 | 33 | 1013.3 |
| 20260503215517 | 15 | 248 | 4.8 | 16.1 | 0.00 | 0.00 | 0.00 | 33 | 1013.3 |